Radiation Dose at Monitoring Post of Fukushima Daini Nuclear Power Station
Date,Time,MP-1(microSv/h),MP-2(microSv/h),MP-3(microSv/h),MP-4(microSv/h),MP-5(microSv/h),MP-6(microSv/h),MP-7(microSv/h),Wind Direction,Wind Velocity(m/s),Rain
2016/10/05,00:00,0.392,0.237,0.411,0.377,0.368,0.194,0.166,-,CALM,No
2016/10/05,00:10,0.388,0.238,0.413,0.380,0.362,0.195,0.165,southeast,1.3,No
2016/10/05,00:20,0.391,0.237,0.411,0.377,0.367,0.193,0.167,south-southwest,1.9,No
2016/10/05,00:30,0.388,0.239,0.413,0.380,0.363,0.193,0.166,southwest,2.4,No
2016/10/05,00:40,0.391,0.238,0.411,0.377,0.364,0.192,0.166,west-southwest,1.4,No
2016/10/05,00:50,0.390,0.239,0.413,0.380,0.364,0.194,0.166,north-northeast,1.5,No
2016/10/05,01:00,0.391,0.239,0.411,0.380,0.366,0.194,0.167,north-northeast,2.2,No
2016/10/05,01:10,0.391,0.238,0.415,0.380,0.364,0.193,0.166,north-northeast,3.9,No
2016/10/05,01:20,0.394,0.237,0.411,0.378,0.365,0.194,0.165,north,4.9,No
2016/10/05,01:30,0.389,0.238,0.414,0.378,0.364,0.193,0.166,north,5.0,No
2016/10/05,01:40,0.391,0.238,0.412,0.378,0.365,0.194,0.167,north,3.5,No
2016/10/05,01:50,0.388,0.238,0.413,0.382,0.363,0.193,0.168,north,5.2,No
2016/10/05,02:00,0.389,0.238,0.411,0.379,0.364,0.194,0.165,north-northeast,5.4,No
2016/10/05,02:10,0.392,0.236,0.415,0.380,0.364,0.193,0.166,north-northeast,4.0,No
2016/10/05,02:20,0.389,0.239,0.411,0.379,0.364,0.195,0.167,north,3.6,No
2016/10/05,02:30,0.391,0.237,0.412,0.380,0.365,0.193,0.165,north-northeast,3.3,No
2016/10/05,02:40,0.390,0.238,0.411,0.378,0.366,0.194,0.166,north,3.2,No
2016/10/05,02:50,0.391,0.239,0.413,0.380,0.367,0.193,0.167,north,3.1,No
2016/10/05,03:00,0.388,0.237,0.411,0.377,0.365,0.193,0.167,north,3.6,No
2016/10/05,03:10,0.393,0.239,0.412,0.378,0.365,0.193,0.166,north,4.5,No
2016/10/05,03:20,0.390,0.237,0.414,0.378,0.364,0.194,0.166,north,4.9,No
2016/10/05,03:30,0.392,0.239,0.415,0.380,0.366,0.193,0.166,north,5.1,No
2016/10/05,03:40,0.388,0.238,0.411,0.379,0.364,0.194,0.166,north,4.3,No
2016/10/05,03:50,0.392,0.238,0.413,0.380,0.366,0.194,0.166,north,4.4,No
2016/10/05,04:00,0.390,0.237,0.412,0.378,0.364,0.194,0.166,north,4.9,No
2016/10/05,04:10,0.392,0.237,0.411,0.380,0.367,0.195,0.167,north,5.3,No
2016/10/05,04:20,0.389,0.239,0.414,0.376,0.364,0.194,0.166,north,4.8,No
2016/10/05,04:30,0.392,0.238,0.411,0.379,0.366,0.193,0.166,north,4.5,No
2016/10/05,04:40,0.390,0.238,0.415,0.378,0.364,0.195,0.166,north-northwest,2.4,No
2016/10/05,04:50,0.392,0.238,0.411,0.378,0.365,0.194,0.166,north-northwest,4.7,No
2016/10/05,05:00,0.389,0.237,0.414,0.378,0.361,0.193,0.167,north-northwest,2.3,No
2016/10/05,05:10,0.393,0.239,0.411,0.377,0.366,0.194,0.166,northwest,1.2,No
2016/10/05,05:20,0.389,0.237,0.412,0.379,0.363,0.194,0.166,north-northwest,2.1,No
2016/10/05,05:30,0.391,0.237,0.411,0.380,0.368,0.193,0.166,north,1.3,No
2016/10/05,05:40,0.389,0.239,0.415,0.378,0.362,0.193,0.166,north-northwest,2.8,No
2016/10/05,05:50,0.391,0.237,0.412,0.379,0.365,0.193,0.165,northwest,0.7,No
2016/10/05,06:00,0.389,0.238,0.412,0.379,0.365,0.194,0.167,north,1.9,No
2016/10/05,06:10,0.391,0.237,0.410,0.378,0.366,0.193,0.166,north,1.2,No
2016/10/05,06:20,0.389,0.239,0.412,0.378,0.363,0.194,0.165,north-northwest,2.8,No
2016/10/05,06:30,0.391,0.236,0.412,0.379,0.364,0.193,0.166,north-northwest,3.5,No
2016/10/05,06:40,0.388,0.238,0.410,0.376,0.363,0.193,0.165,northwest,1.7,No
2016/10/05,06:50,0.390,0.238,0.413,0.379,0.365,0.193,0.166,north,2.5,No
2016/10/05,07:00,0.389,0.238,0.409,0.377,0.365,0.194,0.166,north-northwest,2.5,No
2016/10/05,07:10,0.389,0.238,0.413,0.378,0.363,0.193,0.166,north,2.1,No
2016/10/05,07:20,0.389,0.237,0.409,0.375,0.365,0.193,0.166,north,2.8,No
2016/10/05,07:30,0.389,0.238,0.413,0.379,0.362,0.194,0.167,north,2.3,No
2016/10/05,07:40,0.391,0.237,0.409,0.377,0.366,0.192,0.165,north-northwest,1.2,No
2016/10/05,07:50,0.389,0.237,0.412,0.378,0.363,0.192,0.168,north,1.4,No
2016/10/05,08:00,0.391,0.237,0.413,0.378,0.364,0.193,0.166,north,1.3,No
2016/10/05,08:10,0.390,0.237,0.410,0.377,0.364,0.192,0.166,north,1.6,No
2016/10/05,08:20,0.390,0.238,0.412,0.379,0.362,0.194,0.167,north,1.2,No
2016/10/05,08:30,0.392,0.236,0.410,0.377,0.367,0.193,0.165,north,2.1,No
2016/10/05,08:40,0.388,0.236,0.413,0.377,0.363,0.193,0.165,northwest,1.6,No
2016/10/05,08:50,0.388,0.239,0.413,0.378,0.361,0.194,0.165,north-northeast,1.8,No
2016/10/05,09:00,0.391,0.236,0.410,0.376,0.366,0.192,0.167,northeast,1.5,No
2016/10/05,09:10,0.386,0.236,0.412,0.373,0.365,0.193,0.167,east-southeast,0.8,No
2016/10/05,09:20,0.388,0.234,0.410,0.378,0.362,0.194,0.165,east,1.1,No
2016/10/05,09:30,0.393,0.238,0.410,0.378,0.359,0.193,0.165,east-northeast,1.3,No
2016/10/05,09:40,0.391,0.239,0.414,0.377,0.363,0.193,0.165,south-southwest,0.5,No
2016/10/05,09:50,0.388,0.237,0.410,0.375,0.367,0.193,0.164,southeast,1.2,No
2016/10/05,10:00,0.386,0.236,0.411,0.375,0.366,0.194,0.165,south,1.3,No
2016/10/05,10:10,0.387,0.236,0.413,0.374,0.362,0.195,0.165,southeast,1.1,No
2016/10/05,10:20,0.385,0.236,0.409,0.373,0.362,0.194,0.165,southeast,1.2,No
2016/10/05,10:30,0.387,0.237,0.411,0.374,0.360,0.194,0.165,south-southeast,1.7,No
2016/10/05,10:40,0.392,0.238,0.413,0.378,0.360,0.194,0.167,south-southeast,1.4,No
2016/10/05,10:50,0.391,0.237,0.410,0.382,0.369,0.193,0.167,southeast,0.7,No
2016/10/05,11:00,0.389,0.237,0.410,0.378,0.368,0.194,0.165,south-southeast,1.9,No
2016/10/05,11:10,0.388,0.237,0.414,0.378,0.364,0.194,0.166,south-southeast,2.3,No
2016/10/05,11:20,0.394,0.238,0.411,0.377,0.362,0.193,0.165,south-southeast,2.4,No
2016/10/05,11:30,0.394,0.238,0.409,0.381,0.363,0.193,0.167,south,2.8,No
2016/10/05,11:40,0.387,0.237,0.414,0.379,0.368,0.194,0.166,south,2.5,No
2016/10/05,11:50,0.389,0.236,0.414,0.376,0.364,0.193,0.165,south-southeast,2.5,No
2016/10/05,12:00,0.392,0.239,0.409,0.379,0.362,0.193,0.165,southeast,2.9,No
2016/10/05,12:10,0.391,0.239,0.410,0.382,0.362,0.193,0.167,south,2.9,No
2016/10/05,12:20,0.387,0.236,0.414,0.379,0.361,0.193,0.167,south,1.1,No
2016/10/05,12:30,0.388,0.236,0.412,0.376,0.366,0.193,0.165,south,1.8,No
2016/10/05,12:40,0.391,0.237,0.409,0.377,0.366,0.192,0.166,-,CALM,No
2016/10/05,12:50,0.391,0.238,0.412,0.381,0.362,0.193,0.167,-,CALM,No
2016/10/05,13:00,0.388,0.237,0.413,0.379,0.363,0.195,0.167,south,0.9,No
2016/10/05,13:10,0.390,0.237,0.410,0.377,0.366,0.194,0.166,south,1.6,No
2016/10/05,13:20,0.392,0.237,0.409,0.379,0.367,0.194,0.165,south,2.1,No
2016/10/05,13:30,0.390,0.238,0.415,0.382,0.364,0.195,0.166,south-southeast,1.6,No
2016/10/05,13:40,0.388,0.238,0.413,0.378,0.361,0.194,0.166,south,3.5,No
2016/10/05,13:50,0.393,0.236,0.410,0.377,0.368,0.193,0.166,south,4.4,No
2016/10/05,14:00,0.392,0.239,0.414,0.381,0.366,0.194,0.167,south,3.8,No
2016/10/05,14:10,0.388,0.237,0.414,0.379,0.363,0.194,0.166,south,3.9,No
2016/10/05,14:20,0.392,0.236,0.410,0.377,0.366,0.194,0.166,south,2.1,No
2016/10/05,14:30,0.392,0.239,0.415,0.381,0.366,0.193,0.166,south,4.0,No
2016/10/05,14:40,0.390,0.238,0.414,0.380,0.362,0.194,0.167,south,5.3,No
2016/10/05,14:50,0.391,0.236,0.410,0.376,0.363,0.193,0.166,south,5.7,No
2016/10/05,15:00,0.393,0.238,0.414,0.381,0.368,0.193,0.166,south,6.2,No
2016/10/05,15:10,0.391,0.239,0.413,0.382,0.365,0.193,0.167,south,5.6,No
2016/10/05,15:20,0.389,0.237,0.410,0.376,0.363,0.193,0.166,south,3.9,No
2016/10/05,15:30,0.392,0.238,0.413,0.378,0.366,0.192,0.166,south-southwest,5.0,No
2016/10/05,15:40,0.390,0.237,0.414,0.379,0.366,0.194,0.167,south-southwest,6.0,No
2016/10/05,15:50,0.389,0.238,0.410,0.377,0.363,0.194,0.167,south-southwest,5.6,No
2016/10/05,16:00,0.391,0.240,0.415,0.379,0.366,0.193,0.165,south,5.6,No
2016/10/05,16:10,0.390,0.237,0.413,0.379,0.365,0.194,0.167,south-southwest,5.3,No
2016/10/05,16:20,0.391,0.238,0.411,0.376,0.363,0.193,0.166,south-southwest,4.3,Yes
2016/10/05,16:30,0.392,0.239,0.416,0.382,0.367,0.193,0.165,south-southwest,4.9,No
2016/10/05,16:40,0.389,0.239,0.412,0.378,0.365,0.193,0.167,southwest,5.3,No
2016/10/05,16:50,0.393,0.239,0.412,0.378,0.363,0.193,0.166,southwest,6.4,No
2016/10/05,17:00,0.391,0.238,0.414,0.381,0.366,0.193,0.166,southwest,5.9,Yes
2016/10/05,17:10,0.390,0.237,0.412,0.379,0.364,0.193,0.167,southwest,6.3,Yes
2016/10/05,17:20,0.392,0.239,0.416,0.380,0.366,0.194,0.166,south-southwest,6.6,Yes
2016/10/05,17:30,0.391,0.240,0.413,0.381,0.365,0.195,0.168,south-southwest,6.8,No
2016/10/05,17:40,0.393,0.239,0.412,0.379,0.364,0.193,0.167,south-southwest,8.1,Yes
2016/10/05,17:50,0.392,0.239,0.414,0.382,0.367,0.194,0.167,south-southwest,8.4,No
2016/10/05,18:00,0.389,0.236,0.411,0.379,0.364,0.193,0.167,south-southwest,11.6,Yes
2016/10/05,18:10,0.392,0.239,0.416,0.380,0.365,0.194,0.166,south-southwest,11.0,Yes
2016/10/05,18:20,0.390,0.239,0.414,0.381,0.364,0.194,0.167,south-southwest,10.4,No
2016/10/05,18:30,0.393,0.239,0.414,0.379,0.366,0.193,0.167,south-southwest,10.5,Yes
2016/10/05,18:40,0.391,0.239,0.416,0.383,0.367,0.196,0.167,south-southwest,11.3,Yes
2016/10/05,18:50,0.391,0.237,0.412,0.380,0.364,0.193,0.168,south-southwest,10.5,Yes
2016/10/05,19:00,0.391,0.240,0.414,0.382,0.368,0.195,0.166,south-southwest,11.4,No
2016/10/05,19:10,0.391,0.238,0.413,0.380,0.365,0.194,0.167,south-southwest,10.8,Yes
2016/10/05,19:20,0.394,0.240,0.414,0.380,0.368,0.196,0.166,south-southwest,10.0,Yes
2016/10/05,19:30,0.391,0.238,0.413,0.382,0.364,0.194,0.168,south-southwest,10.1,Yes
2016/10/05,19:40,0.394,0.237,0.412,0.378,0.365,0.194,0.167,south-southwest,8.6,Yes
2016/10/05,19:50,0.393,0.238,0.415,0.382,0.366,0.194,0.167,south-southwest,8.9,Yes
2016/10/05,20:00,0.391,0.237,0.413,0.379,0.362,0.195,0.168,south-southwest,9.0,Yes
2016/10/05,20:10,0.394,0.239,0.416,0.380,0.368,0.195,0.168,south-southwest,8.1,No
2016/10/05,20:20,0.390,0.239,0.414,0.382,0.365,0.195,0.167,south-southwest,8.4,No
2016/10/05,20:30,0.393,0.239,0.413,0.380,0.367,0.194,0.167,south-southwest,7.9,No
2016/10/05,20:40,0.392,0.240,0.415,0.381,0.365,0.195,0.167,south-southwest,8.1,No
2016/10/05,20:50,0.390,0.238,0.412,0.379,0.363,0.195,0.168,south-southwest,8.2,Yes
2016/10/05,21:00,0.392,0.239,0.415,0.381,0.367,0.193,0.166,south-southwest,10.0,No
2016/10/05,21:10,0.389,0.238,0.412,0.380,0.363,0.194,0.167,south-southwest,10.6,No
2016/10/05,21:20,0.391,0.238,0.413,0.377,0.366,0.194,0.166,south-southwest,12.3,No
2016/10/05,21:30,0.392,0.240,0.414,0.382,0.364,0.194,0.166,south,10.3,No
2016/10/05,21:40,0.389,0.238,0.409,0.380,0.363,0.195,0.168,south,10.5,No
2016/10/05,21:50,0.390,0.240,0.415,0.380,0.365,0.192,0.166,south,9.9,No
2016/10/05,22:00,0.390,0.239,0.413,0.381,0.362,0.195,0.166,south,10.7,No
2016/10/05,22:10,0.391,0.237,0.412,0.378,0.364,0.195,0.167,south,10.4,No
2016/10/05,22:20,0.393,0.240,0.416,0.381,0.365,0.194,0.166,south,10.0,No
2016/10/05,22:30,0.390,0.237,0.413,0.381,0.364,0.195,0.168,south,9.5,No
2016/10/05,22:40,0.392,0.238,0.414,0.379,0.366,0.194,0.166,south,10.7,No
2016/10/05,22:50,0.392,0.239,0.415,0.380,0.363,0.193,0.166,south,11.8,No
2016/10/05,23:00,0.388,0.238,0.410,0.377,0.366,0.194,0.167,south,12.4,No
2016/10/05,23:10,0.392,0.238,0.414,0.380,0.365,0.194,0.167,south,13.8,No
2016/10/05,23:20,0.390,0.238,0.414,0.382,0.362,0.195,0.166,south-southwest,12.7,No
2016/10/05,23:30,0.389,0.238,0.411,0.377,0.365,0.194,0.168,south,14.3,No
2016/10/05,23:40,0.392,0.240,0.414,0.380,0.365,0.193,0.166,south-southwest,15.6,Yes
2016/10/05,23:50,0.392,0.239,0.414,0.381,0.361,0.193,0.166,south-southwest,16.0,No
